TimeMST,TemperatureF,Dew PointF,Humidity,Sea Level PressureIn,VisibilityMPH,Wind Direction,Wind SpeedMPH,Gust SpeedMPH,PrecipitationIn,Events,Conditions,WindDirDegrees,DateUTC
12:15 AM,-4.0,-8.3,82,30.02,10.0,Calm,Calm,-,N/A,,Clear,0,2012-12-30 07:15:00
12:35 AM,-4.0,-8.5,81,30.01,10.0,Calm,Calm,-,N/A,,Clear,0,2012-12-30 07:35:00
12:55 AM,-4.7,-9.4,80,30.02,10.0,Calm,Calm,-,N/A,,Clear,0,2012-12-30 07:55:00
1:15 AM,-6.5,-11.2,80,30.01,10.0,Calm,Calm,-,N/A,,Clear,0,2012-12-30 08:15:00
1:35 AM,-8.0,-13.4,77,30.01,10.0,Calm,Calm,-,N/A,,Clear,0,2012-12-30 08:35:00
1:55 AM,-7.8,-12.6,79,30.02,10.0,Calm,Calm,-,N/A,,Clear,0,2012-12-30 08:55:00
2:15 AM,-8.7,-13.7,79,30.02,7.0,Calm,Calm,-,N/A,,Clear,0,2012-12-30 09:15:00
2:35 AM,-8.7,-13.5,79,30.02,10.0,Calm,Calm,-,N/A,,Clear,0,2012-12-30 09:35:00
2:55 AM,-8.1,-13.0,79,30.02,10.0,Calm,Calm,-,N/A,,Clear,0,2012-12-30 09:55:00
3:15 AM,-8.0,-13.0,79,30.02,10.0,Calm,Calm,-,N/A,,Clear,0,2012-12-30 10:15:00
3:35 AM,-9.0,-14.1,79,30.02,10.0,Calm,Calm,-,N/A,,Clear,0,2012-12-30 10:35:00
3:55 AM,-7.4,-11.9,81,30.02,10.0,Calm,Calm,-,N/A,,Clear,0,2012-12-30 10:55:00
4:15 AM,-8.3,-13.4,79,30.02,10.0,Calm,Calm,-,N/A,,Clear,0,2012-12-30 11:15:00
4:35 AM,-8.5,-13.9,77,30.01,10.0,Calm,Calm,-,N/A,,Clear,0,2012-12-30 11:35:00
4:55 AM,-8.9,-14.1,78,30.01,10.0,Calm,Calm,-,N/A,,Clear,0,2012-12-30 11:55:00
5:15 AM,-8.9,-14.1,78,30.01,10.0,Calm,Calm,-,N/A,,Clear,0,2012-12-30 12:15:00
5:35 AM,-8.7,-14.4,76,30.00,10.0,Calm,Calm,-,N/A,,Clear,0,2012-12-30 12:35:00
5:55 AM,-6.5,-11.4,79,30.00,10.0,Calm,Calm,-,N/A,,Clear,0,2012-12-30 12:55:00
6:15 AM,-8.5,-13.9,77,30.00,10.0,Calm,Calm,-,N/A,,Clear,0,2012-12-30 13:15:00
6:35 AM,-9.0,-14.8,76,30.00,10.0,Calm,Calm,-,N/A,,Clear,0,2012-12-30 13:35:00
6:55 AM,-12.1,-18.2,74,30.00,10.0,Calm,Calm,-,N/A,,Clear,0,2012-12-30 13:55:00
7:15 AM,-10.3,-15.3,78,30.00,10.0,Calm,Calm,-,N/A,,Scattered Clouds,0,2012-12-30 14:15:00
7:35 AM,-9.2,-15.0,76,29.99,10.0,Calm,Calm,-,N/A,,Mostly Cloudy,0,2012-12-30 14:35:00
7:55 AM,-6.9,-11.9,79,29.98,10.0,Calm,Calm,-,N/A,,Overcast,0,2012-12-30 14:55:00
8:15 AM,-9.4,-15.0,76,29.99,10.0,Calm,Calm,-,N/A,,Overcast,0,2012-12-30 15:15:00
8:35 AM,-6.9,-12.5,77,29.99,1.8,Calm,Calm,-,N/A,,Mostly Cloudy,0,2012-12-30 15:35:00
8:55 AM,-6.7,-12.3,77,29.99,10.0,Calm,Calm,-,N/A,,Clear,0,2012-12-30 15:55:00
9:15 AM,-6.5,-11.9,77,29.99,10.0,Calm,Calm,-,N/A,,Clear,0,2012-12-30 16:15:00
9:35 AM,-4.5,-10.1,77,29.99,10.0,Calm,Calm,-,N/A,,Scattered Clouds,0,2012-12-30 16:35:00
9:55 AM,-2.9,-8.3,78,30.00,10.0,Calm,Calm,-,N/A,,Scattered Clouds,0,2012-12-30 16:55:00
10:15 AM,-1.8,-7.4,77,29.99,10.0,Calm,Calm,-,N/A,,Scattered Clouds,0,2012-12-30 17:15:00
10:35 AM,2.1,-2.9,79,29.99,10.0,Calm,Calm,-,N/A,,Scattered Clouds,0,2012-12-30 17:35:00
10:55 AM,4.5,-0.6,80,29.98,10.0,Calm,Calm,-,N/A,,Clear,0,2012-12-30 17:55:00
11:15 AM,3.7,-2.7,74,29.97,10.0,Calm,Calm,-,N/A,,Clear,0,2012-12-30 18:15:00
11:35 AM,5.7,-1.5,72,29.96,10.0,Calm,Calm,-,N/A,,Clear,0,2012-12-30 18:35:00
11:55 AM,9.7,-1.5,61,29.95,10.0,Calm,Calm,-,N/A,,Clear,0,2012-12-30 18:55:00
12:15 PM,9.7,-2.2,59,29.94,10.0,Calm,Calm,-,N/A,,Clear,0,2012-12-30 19:15:00
12:35 PM,9.9,-3.1,56,29.93,10.0,Calm,Calm,-,N/A,,Clear,0,2012-12-30 19:35:00
12:55 PM,10.2,-3.1,55,29.92,10.0,Calm,Calm,-,N/A,,Clear,0,2012-12-30 19:55:00
1:15 PM,8.8,-2.9,59,29.92,10.0,Calm,Calm,-,N/A,,Clear,0,2012-12-30 20:15:00
1:35 PM,9.7,-2.7,57,29.92,10.0,Calm,Calm,-,N/A,,Clear,0,2012-12-30 20:35:00
1:55 PM,9.7,-2.2,59,29.91,10.0,Calm,Calm,-,N/A,,Clear,0,2012-12-30 20:55:00
2:15 PM,11.7,-0.8,58,29.90,10.0,Calm,Calm,-,N/A,,Clear,0,2012-12-30 21:15:00
2:35 PM,11.5,-0.8,58,29.90,10.0,Calm,Calm,-,N/A,,Clear,0,2012-12-30 21:35:00
2:55 PM,9.7,-0.4,64,29.90,10.0,Calm,Calm,-,N/A,,Clear,0,2012-12-30 21:55:00
3:15 PM,8.4,-2.0,63,29.90,10.0,Calm,Calm,-,N/A,,Clear,0,2012-12-30 22:15:00
3:35 PM,7.7,-0.9,68,29.91,10.0,Calm,Calm,-,N/A,,Clear,0,2012-12-30 22:35:00
3:55 PM,7.9,-1.5,66,29.91,10.0,Calm,Calm,-,N/A,,Clear,0,2012-12-30 22:55:00
4:15 PM,7.9,-0.4,69,29.91,10.0,Calm,Calm,-,N/A,,Clear,0,2012-12-30 23:15:00
4:35 PM,5.9,-1.3,72,29.91,10.0,Calm,Calm,-,N/A,,Mostly Cloudy,0,2012-12-30 23:35:00
4:55 PM,8.6,1.0,71,29.91,10.0,Calm,Calm,-,N/A,,Scattered Clouds,0,2012-12-30 23:55:00
5:15 PM,4.3,-1.8,76,29.91,10.0,Calm,Calm,-,N/A,,Clear,0,2012-12-31 00:15:00
5:35 PM,5.5,-1.3,73,29.91,10.0,Calm,Calm,-,N/A,,Clear,0,2012-12-31 00:35:00
5:55 PM,4.3,-2.6,73,29.90,10.0,Calm,Calm,-,N/A,,Scattered Clouds,0,2012-12-31 00:55:00
6:15 PM,5.0,-2.2,72,29.90,10.0,Calm,Calm,-,N/A,,Mostly Cloudy,0,2012-12-31 01:15:00
6:35 PM,5.2,-1.8,73,29.89,10.0,Calm,Calm,-,N/A,,Overcast,0,2012-12-31 01:35:00
6:55 PM,5.0,-0.9,76,29.89,10.0,Calm,Calm,-,N/A,,Overcast,0,2012-12-31 01:55:00
7:15 PM,6.1,-0.8,73,29.89,10.0,Calm,Calm,-,N/A,,Overcast,0,2012-12-31 02:15:00
7:35 PM,7.0,0.3,74,29.88,10.0,Calm,Calm,-,N/A,,Overcast,0,2012-12-31 02:35:00
7:55 PM,6.8,0.1,74,29.88,10.0,Calm,Calm,-,N/A,,Overcast,0,2012-12-31 02:55:00
8:15 PM,7.9,0.9,73,29.87,10.0,Calm,Calm,-,N/A,,Overcast,0,2012-12-31 03:15:00
8:55 PM,7.3,0.3,73,29.87,10.0,Calm,Calm,-,N/A,,Overcast,0,2012-12-31 03:55:00
9:15 PM,6.8,1.0,77,29.87,10.0,Calm,Calm,-,N/A,,Overcast,0,2012-12-31 04:15:00
9:35 PM,8.1,1.6,75,29.87,10.0,Calm,Calm,-,N/A,,Overcast,0,2012-12-31 04:35:00
9:55 PM,7.7,1.4,75,29.88,10.0,Calm,Calm,-,N/A,,Overcast,0,2012-12-31 04:55:00
10:15 PM,8.2,2.1,76,29.88,10.0,Calm,Calm,-,N/A,,Overcast,0,2012-12-31 05:15:00
10:35 PM,7.5,2.1,79,29.88,7.0,Calm,Calm,-,N/A,,Overcast,0,2012-12-31 05:35:00
10:55 PM,7.7,2.5,79,29.88,4.0,Calm,Calm,-,N/A,,Overcast,0,2012-12-31 05:55:00
11:15 PM,7.7,3.2,82,29.88,3.0,Calm,Calm,-,N/A,,Overcast,0,2012-12-31 06:15:00
11:35 PM,7.9,3.9,84,29.88,2.0,Calm,Calm,-,N/A,,Overcast,0,2012-12-31 06:35:00
11:55 PM,9.1,5.0,83,29.87,3.0,Calm,Calm,-,N/A,,Overcast,0,2012-12-31 06:55:00